Simultaneous Nadir Overpasses (SNOs) Predictions

Prediction of SNOs between TERRA and METOP-C Satellite Orbit:

Table of predicted SNOs for the next 14.0 days since TLE Epoch: 6/25/2022
Index Date (TERRA) Time (TERRA) Lat,Lon (TERRA) SZA (TERRA ) Date (METOP-C) Time (METOP-C) Lat,Lon (METOP-C) SZA (METOP-C ) Distance(km) Time Diff (sec)
1 06/26/2022 18:50:55 -81.18, 118.32 119.96 06/26/2022 18:50:09 -81.18, 118.50 119.96 3.19 46
2 06/26/2022 19:40:20 81.19, -73.96 60.06 06/26/2022 19:40:47 81.19, -73.92 60.07 0.84 27
3 06/29/2022 14:25:04 -81.17,-175.47 119.88 06/29/2022 14:24:32 -81.16,-175.64 119.92 3.06 32
4 06/29/2022 15:14:29 81.19, -7.41 60.19 06/29/2022 15:15:09 81.19, -7.34 60.21 1.16 40
5 07/02/2022 09:59:13 -81.17,-108.98 119.71 07/02/2022 09:58:54 -81.17,-109.07 119.73 1.62 19
6 07/02/2022 10:48:38 81.20, 59.05 60.36 07/02/2022 10:49:31 81.20, 59.21 60.40 2.67 53
7 07/05/2022 05:33:22 -81.17, -42.59 119.49 07/05/2022 05:33:16 -81.17, -42.54 119.49 1.10 6
8 07/05/2022 06:22:47 81.19, 125.42 60.57 07/05/2022 06:23:54 81.19, 125.34 60.59 1.30 67
9 07/08/2022 00:18:03 81.16,-143.92 60.76 07/08/2022 00:16:56 81.16,-143.81 60.75 1.94 67



Historial Predications of SNOs between TERRA and METOP-C
